timestamp,surface_pressure_avg,surface_temp_avg,battery_voltage,lat,long
2021-04-01 00:09:01+00:00,290.6947,1.52,12.97,47.84626,-54.09684
2021-04-01 00:19:01+00:00,297.3564,1.55,12.65,47.84626,-54.09684
2021-04-01 00:29:01+00:00,303.9479,1.57,12.65,47.84626,-54.09684
2021-04-01 00:39:01+00:00,307.7414,1.59,12.65,47.84626,-54.09684
2021-04-01 00:49:01+00:00,315.068,1.6,12.65,47.84626,-54.09684
2021-04-01 00:59:01+00:00,324.8964,1.63,12.65,47.84626,-54.09684
2021-04-01 01:09:01+00:00,328.3212,1.69,12.65,47.84626,-54.09684
2021-04-01 01:19:01+00:00,330.4496,1.7,12.65,47.84626,-54.09684
2021-04-01 01:29:01+00:00,336.8813,1.7,12.65,47.84626,-54.09684
2021-04-01 01:39:01+00:00,345.1763,1.7,12.65,47.84626,-54.09684
2021-04-01 01:49:01+00:00,347.213,1.7,12.65,47.84626,-54.09684
2021-04-01 01:59:01+00:00,350.0963,1.7,12.65,47.84626,-54.09684
2021-04-01 02:09:01+00:00,350.2646,1.75,12.65,47.84626,-54.09684
2021-04-01 02:19:01+00:00,348.8013,1.78,12.65,47.84626,-54.09684
2021-04-01 02:29:01+00:00,346.3446,1.79,12.65,47.84626,-54.09684
2021-04-01 02:39:01+00:00,346.5629,1.78,12.65,47.84626,-54.09684
2021-04-01 02:49:01+00:00,349.3779,1.78,12.65,47.84626,-54.09684
2021-04-01 02:59:01+00:00,346.3563,1.71,12.65,47.84626,-54.09684
2021-04-01 03:09:01+00:00,342.798,1.7,12.65,47.84626,-54.09684
2021-04-01 03:19:01+00:00,339.2530000000001,1.7,12.57,47.84626,-54.09684
2021-04-01 03:29:01+00:00,334.2913,1.7,12.57,47.84626,-54.09684
2021-04-01 03:39:01+00:00,330.7729,1.7,12.57,47.84626,-54.09684
2021-04-01 03:49:01+00:00,325.4963,1.7,12.57,47.84626,-54.09684
2021-04-01 03:59:01+00:00,317.4347,1.7,12.57,47.84626,-54.09684
2021-04-01 04:09:01+00:00,307.7629,1.7,12.57,47.84626,-54.09684
2021-04-01 04:19:01+00:00,302.3197,1.7,12.57,47.84626,-54.09684
2021-04-01 04:29:01+00:00,290.9714,1.7,12.57,47.84626,-54.09684
2021-04-01 04:39:01+00:00,280.6981,1.7,12.57,47.84626,-54.09684
2021-04-01 04:49:01+00:00,275.9914,1.69,12.57,47.84626,-54.09684
2021-04-01 04:59:01+00:00,266.9297,1.63,12.57,47.84626,-54.09684
2021-04-01 05:09:01+00:00,252.2181,1.6,12.57,47.84626,-54.09684
2021-04-01 05:19:01+00:00,240.5097,1.6,12.57,47.84626,-54.09684
2021-04-01 05:29:01+00:00,233.2264,1.6,12.57,47.84626,-54.09684
2021-04-01 05:39:01+00:00,223.2181,1.6,12.57,47.84626,-54.09684
2021-04-01 05:49:01+00:00,210.3064,1.6,12.57,47.84626,-54.09684
2021-04-01 05:59:01+00:00,201.0531,1.5,12.57,47.84626,-54.09684
2021-04-01 06:09:01+00:00,193.9548,1.47,12.57,47.84626,-54.09684
2021-04-01 06:19:01+00:00,185.7731,1.4,12.57,47.84626,-54.09684
2021-04-01 06:29:01+00:00,176.3448,1.4,12.57,47.84626,-54.09684
2021-04-01 06:39:01+00:00,169.0181,1.38,12.57,47.84626,-54.09684
2021-04-01 06:49:01+00:00,162.7232,1.33,12.57,47.84626,-54.09684
2021-04-01 06:59:01+00:00,154.4998,1.3,12.57,47.84626,-54.09684
2021-04-01 07:09:01+00:00,147.1782,1.3,12.57,47.84626,-54.09684
2021-04-01 07:19:01+00:00,143.8499,1.3,12.57,47.84626,-54.09684
2021-04-01 07:29:01+00:00,140.7515,1.3,12.57,47.84626,-54.09684
2021-04-01 07:39:01+00:00,137.5932,1.29,12.57,47.84626,-54.09684
2021-04-01 07:49:01+00:00,137.6082,1.29,12.57,47.84626,-54.09684
2021-04-01 07:59:01+00:00,142.9398,1.3,12.57,47.84626,-54.09684
2021-04-01 08:09:01+00:00,147.8165,1.3,12.57,47.84626,-54.09684
2021-04-01 08:19:01+00:00,144.8615,1.3,12.57,47.84626,-54.09684
2021-04-01 08:29:01+00:00,144.1232,1.3,12.57,47.84626,-54.09684
2021-04-01 08:39:01+00:00,148.5882,1.38,12.57,47.84626,-54.09684
2021-04-01 08:49:01+00:00,149.6882,1.4,12.57,47.84626,-54.09684
2021-04-01 08:59:01+00:00,148.9532,1.46,12.57,47.84626,-54.09684
2021-04-01 09:09:01+00:00,155.6615,1.5,12.57,47.84626,-54.09684
2021-04-01 09:19:01+00:00,162.3932,1.5,12.49,47.84626,-54.09684
2021-04-01 09:29:01+00:00,162.1432,1.5,12.49,47.84626,-54.09684
2021-04-01 09:39:01+00:00,165.6465,1.5,12.49,47.84626,-54.09684
2021-04-01 09:49:01+00:00,174.9948,1.5,12.49,47.84626,-54.09684
2021-04-01 09:59:01+00:00,180.8648,1.5,12.49,47.84626,-54.09684
2021-04-01 10:09:01+00:00,182.8681,1.5,12.49,47.84626,-54.09684
2021-04-01 10:19:01+00:00,187.8398,1.5,12.57,47.84626,-54.09684
2021-04-01 10:29:01+00:00,191.6598,1.5,12.57,47.84626,-54.09684
2021-04-01 10:39:01+00:00,194.7964,1.5,12.57,47.84626,-54.09684
2021-04-01 10:49:01+00:00,199.1331,1.5,12.57,47.84626,-54.09684
2021-04-01 10:59:01+00:00,201.9398,1.5,12.57,47.84626,-54.09684
2021-04-01 11:09:01+00:00,205.4431,1.54,12.57,47.84626,-54.09684
2021-04-01 11:19:01+00:00,211.9465,1.59,12.57,47.84626,-54.09684
2021-04-01 11:29:01+00:00,218.6614,1.6,12.57,47.84626,-54.09684
2021-04-01 11:39:01+00:00,224.993,1.6,12.57,47.84626,-54.09684
2021-04-01 11:49:01+00:00,233.0131,1.6,12.57,47.84626,-54.09684
2021-04-01 11:59:01+00:00,242.7148,1.69,12.57,47.84626,-54.09684
2021-04-01 12:09:01+00:00,250.6431,1.7,12.57,47.84626,-54.09684
2021-04-01 12:19:01+00:00,258.4781,1.7,12.89,47.84626,-54.09684
2021-04-01 12:29:01+00:00,267.7964,1.71,12.89,47.84626,-54.09684
2021-04-01 12:39:01+00:00,277.2314,1.73,12.89,47.84626,-54.09684
2021-04-01 12:49:01+00:00,283.5013,1.75,12.89,47.84626,-54.09684
2021-04-01 12:59:01+00:00,289.743,1.76,12.89,47.84626,-54.09684
2021-04-01 13:09:01+00:00,300.2097,1.76,12.89,47.84626,-54.09684
2021-04-01 13:19:01+00:00,309.4413,1.76,13.37,47.84626,-54.09684
2021-04-01 13:29:01+00:00,315.1013,1.78,13.37,47.84626,-54.09684
2021-04-01 13:39:01+00:00,322.7646,1.77,13.37,47.84626,-54.09684
2021-04-01 13:49:01+00:00,328.2097,1.78,13.37,47.84626,-54.09684
2021-04-01 13:59:01+00:00,331.8097,1.79,13.37,47.84626,-54.09684
2021-04-01 14:09:01+00:00,333.048,1.78,13.37,47.84626,-54.09684
2021-04-01 14:19:01+00:00,336.2580000000001,1.8,13.44,47.84626,-54.09684
2021-04-01 14:29:01+00:00,337.5680000000001,1.8,13.44,47.84626,-54.09684
2021-04-01 14:39:01+00:00,339.168,1.8,13.44,47.84626,-54.09684
2021-04-01 14:49:01+00:00,336.4046,1.8,13.44,47.84626,-54.09684
2021-04-01 14:59:01+00:00,328.9713,1.8,13.44,47.84626,-54.09684
2021-04-01 15:09:01+00:00,326.4613,1.8,13.44,47.84626,-54.09684
2021-04-01 15:19:01+00:00,324.8097,1.79,13.92,47.84626,-54.09684
2021-04-01 15:29:01+00:00,324.0313,1.7,13.92,47.84626,-54.09684
2021-04-01 15:39:01+00:00,317.3947,1.67,13.92,47.84626,-54.09684
2021-04-01 15:49:01+00:00,314.0347,1.6,13.92,47.84626,-54.09684
2021-04-01 15:59:01+00:00,314.043,1.61,13.92,47.84626,-54.09684
2021-04-01 16:09:01+00:00,313.8913,1.61,13.92,47.84626,-54.09684
2021-04-01 16:19:01+00:00,309.3113,1.6,14.32,47.84626,-54.09684
2021-04-01 16:29:01+00:00,307.1514,1.6,14.32,47.84626,-54.09684
2021-04-01 16:39:01+00:00,303.938,1.62,14.32,47.84626,-54.09684
2021-04-01 16:49:01+00:00,294.1514,1.63,14.32,47.84626,-54.09684
2021-04-01 16:59:01+00:00,281.8364,1.63,14.32,47.84626,-54.09684
2021-04-01 17:09:01+00:00,272.8997,1.66,14.32,47.84626,-54.09684
2021-04-01 17:19:01+00:00,259.7397,1.69,14.24,47.84626,-54.09684
2021-04-01 17:29:01+00:00,244.4064,1.69,14.24,47.84626,-54.09684
2021-04-01 17:39:01+00:00,235.8464,1.7,14.24,47.84626,-54.09684
2021-04-01 17:49:01+00:00,229.0281,1.7,14.24,47.84626,-54.09684
2021-04-01 17:59:01+00:00,220.5681,1.7,14.24,47.84626,-54.09684
2021-04-01 18:09:01+00:00,213.3214,1.7,14.24,47.84626,-54.09684
2021-04-01 18:19:01+00:00,207.3831,1.7,14.4,47.84626,-54.09684
2021-04-01 18:29:01+00:00,197.1464,1.76,14.4,47.84626,-54.09684
2021-04-01 18:39:01+00:00,188.4081,1.8,14.4,47.84626,-54.09684
2021-04-01 18:49:01+00:00,181.6515,1.8,14.4,47.84626,-54.09684
2021-04-01 18:59:01+00:00,173.0765,1.8,14.4,47.84626,-54.09684
2021-04-01 19:09:01+00:00,164.1714,1.86,14.4,47.84626,-54.09684
2021-04-01 19:19:01+00:00,159.2298,1.89,14.24,47.84626,-54.09684
2021-04-01 19:29:01+00:00,157.8682,1.89,14.24,47.84626,-54.09684
2021-04-01 19:39:01+00:00,155.8115,1.89,14.24,47.84626,-54.09684
2021-04-01 19:49:01+00:00,160.2898,1.9,14.24,47.84626,-54.09684
2021-04-01 19:59:01+00:00,165.0798,1.9,14.24,47.84626,-54.09684
2021-04-01 20:09:01+00:00,162.6065,1.9,14.24,47.84626,-54.09684
2021-04-01 20:19:01+00:00,162.0315,1.93,13.92,47.84626,-54.09684
2021-04-01 20:29:01+00:00,167.0282,2.0,13.92,47.84626,-54.09684
2021-04-01 20:39:01+00:00,168.1882,2.0,13.92,47.84626,-54.09684
2021-04-01 20:49:01+00:00,163.8732,2.0,13.92,47.84626,-54.09684
2021-04-01 20:59:01+00:00,166.8515,2.06,13.92,47.84626,-54.09684
2021-04-01 21:09:01+00:00,168.3282,2.08,13.92,47.84626,-54.09684
2021-04-01 21:19:01+00:00,165.2098,2.1,13.68,47.84626,-54.09684
2021-04-01 21:29:01+00:00,172.8382,2.09,13.68,47.84626,-54.09684
2021-04-01 21:39:01+00:00,186.7764,2.04,13.68,47.84626,-54.09684
2021-04-01 21:49:01+00:00,192.9648,2.06,13.68,47.84626,-54.09684
2021-04-01 21:59:01+00:00,198.4898,2.08,13.68,47.84626,-54.09684
2021-04-01 22:09:01+00:00,211.6865,2.08,13.68,47.84626,-54.09684
2021-04-01 22:19:01+00:00,221.1331,2.09,13.29,47.84626,-54.09684
2021-04-01 22:29:01+00:00,221.6181,2.09,13.29,47.84626,-54.09684
2021-04-01 22:39:01+00:00,226.9565,2.1,13.29,47.84626,-54.09684
2021-04-01 22:49:01+00:00,235.3448,2.09,13.29,47.84626,-54.09684
2021-04-01 22:59:01+00:00,238.7464,2.1,13.29,47.84626,-54.09684
2021-04-01 23:09:01+00:00,241.9681,2.1,13.29,47.84626,-54.09684
2021-04-01 23:19:01+00:00,247.8548,2.1,12.89,47.84626,-54.09684
2021-04-01 23:29:01+00:00,255.0364,2.1,12.89,47.84626,-54.09684
2021-04-01 23:39:01+00:00,257.6497,2.1,12.89,47.84626,-54.09684
2021-04-01 23:49:01+00:00,261.5214,2.1,12.89,47.84626,-54.09684
2021-04-01 23:59:01+00:00,270.0464,2.1,12.89,47.84626,-54.09684
